Home   Weather   Saipan   Past weeks

Flag for Northern Mariana Islands Past Weather in Saipan, Northern Mariana Islands — Yesterday and Last 2 Weeks

Now
79 °F

Scattered clouds.


Feels Like: 82 °F
Forecast: 71 / 76 °F
Wind: 16 mph from Northeast

Location: Saipan International Airport

Current Time: Jan 23, 2017 at 8:30:13 am

Latest Report: Jan 23, 2017 at 7:54 am


Visibility: 10 mi

Pressure: 30.09 "Hg

Humidity: 79%

Dew Point: 72 °F

Location of SaipanLocation

Past Weather in Saipan — Graph

°F

Saipan Temperature Yesterday

Maximum temperature yesterday: 85 °F (at 11:54 am)
Minimum temperature yesterday: 77 °F (at 7:54 pm)
Average temperature yesterday: 80 °F

High & Low Weather Summary for the Past Weeks

 TemperatureHumidityPressure
High86 °F (Jan 14, 12:54 pm)100% (Jan 9, 12:29 am)30.12 "Hg (Jan 9, 12:29 am)
Low73 °F (Jan 17, 6:38 pm)63% (Jan 20, 10:54 am)29.79 "Hg (Jan 16, 5:00 am)
Average79 °F87%29.95 "Hg
* Reported Jan 8 6:54 am — Jan 23 6:54 am, Saipan, Weather by CustomWeather, © 2017

Note: Actual official high and low records may vary slightly from our data, if they occured in-between our weather recording intervals... More about our weather records

Advertising

Saipan Weather History for the Previous 24 Hours

Scroll right to see more
 ConditionsComfort  
Time TempWeatherWind HumidityBarometerVisibility
6:54 am
Mon, Jan 23
77 °FScattered clouds.16 mph82%30.08 "Hg10 mi
5:54 am77 °FPassing clouds.10 mph82%30.06 "Hg10 mi
4:54 am77 °FPassing clouds.12 mph85%30.05 "Hg10 mi
3:54 am77 °FPassing clouds.10 mph85%30.05 "Hg10 mi
2:54 am77 °FPassing clouds.13 mph82%30.05 "Hg10 mi
1:54 am77 °FPassing clouds.9 mph79%30.06 "Hg10 mi
12:54 am76 °FPassing clouds.10 mph80%30.07 "Hg10 mi
11:54 pm
Sun, Jan 22
77 °FPassing clouds.13 mph82%30.07 "Hg10 mi
10:54 pm78 °FMostly cloudy.16 mph82%30.08 "Hg10 mi
9:54 pm77 °FPartly cloudy.17 mph88%30.08 "Hg10 mi
8:54 pm77 °FLight rain. Partly cloudy.20 mph90%30.07 "Hg10 mi
7:54 pm77 °FPartly cloudy.10 mph90%30.06 "Hg10 mi
6:54 pm78 °FOvercast.21 mph84%30.05 "Hg10 mi
5:54 pm78 °FLight rain. Broken clouds.17 mph87%30.03 "Hg10 mi
4:54 pm82 °FScattered clouds.17 mph72%30.02 "Hg10 mi
3:54 pm82 °FScattered clouds.18 mph72%30.01 "Hg10 mi
2:54 pm82 °FScattered clouds.18 mph72%30.01 "Hg10 mi
1:54 pm83 °FPassing clouds.20 mph68%30.02 "Hg10 mi
12:54 pm84 °FPassing clouds.22 mph67%30.04 "Hg10 mi
11:54 am85 °FPassing clouds.20 mph65%30.07 "Hg10 mi
10:54 am83 °FPassing clouds.20 mph70%30.09 "Hg10 mi
9:54 am82 °FPassing clouds.21 mph70%30.10 "Hg10 mi
8:54 am80 °FPassing clouds.24 mph74%30.09 "Hg10 mi
Weather by CustomWeather, © 2017

See weather overviewHow to use our weather pages